sat.trackr.live / text

‹ back to catalog

STARLINK-3594

NORAD 51895 · 2022-022AV

PAYLOAD ACTIVE UNKNOWN

§ Identity

Operator
Country
US
Launch date
2022-03-03
Launch site
AFETR
Launch vehicle
Mass (kg)
RCS (m²)

Purposes: comms

External: N2YO · Heavens-Above · Gunter

§ Orbital elements

Epoch: 2026-09-20T04:17:23.311392Z

Period
93.85 min
Inclination
53.1596°
Eccentricity
0.0001352
Mean motion
15.34383300 rev/d
Perigee alt
461.8 km
Apogee alt
463.7 km
Semi-major
6,840.9 km
B*
2.0301e-5
RAAN
189.5614°
Arg perigee
76.7105°
Mean anomaly
283.4048°
Rev number
25,283

§ Raw data

STARLINK-35941 51895U 22022AV  26263.17874203  .00000309  00000+0  20301-4 0  99982 51895  53.1596 189.5614 0001352  76.7105 283.4048 15.34383300252839

JSON: /api/v1/satellites/51895 · /tle

For live sub-satellite position, see the globe view (requires WebGL).

§ Visibility from observer

Set your observer location to see the next 7 days of passes ≥ 10°. The values pass through the URL so the page stays shareable.

No JS? Fill the form by hand. The geolocation button needs JavaScript.